• Join FlightAware (Why Join?)
  • Login
  • US Flag 
03:14PM EST


 

Airport Tracker/Info


-or-


 

Live Flight TrackerFlight Track Log ✈ AAY805 ✈ 04-Sep-2014 ✈ KCHA - KPIE

Flight Track Log - Related Links

Times and Time Zones

All times are in EDT time to prevent confusion due to time zone crossing. See the AAY805 flight status page for this flight to view local times or setup timezone preferences in your user account.

Time Position Orientation Groundspeed Altitude Reporting Facility
EDT Latitude Longitude Course Direction KTS MPH feet Rate Location/Type
09:41AM 34.8806 -85.1631 158° South 245 282 6,600  Level Atlanta Center
09:42AM 34.8100 -85.1189 153° Southeast 250 288 9,500 2,200 Climbing Atlanta Center
09:43AM 34.7375 -85.0600 146° Southeast 286 329 11,000 2,350 Climbing Atlanta Center
09:44AM 34.6506 -84.9806 143° Southeast 343 395 14,200 2,650 Climbing Atlanta Center
09:45AM 34.4537 -84.8685 158° South  Level FlightAware Approximate
09:45AM 34.5675 -84.9117 146° Southeast 358 412 16,300  Level Atlanta Center
09:46AM 34.4806 -84.8350 144° Southeast 373 429 18,300 1,850 Climbing Atlanta Center
09:47AM 34.3911 -84.7586 145° Southeast 378 435 20,000 1,800 Climbing Atlanta Center
09:48AM 34.2892 -84.7050 157° South 389 448 21,900 1,700 Climbing Atlanta Center
09:49AM 34.1831 -84.6617 161° South 402 463 23,400 1,400 Climbing Atlanta Center
09:50AM 34.0831 -84.6206 161° South 409 471 24,700 1,250 Climbing Atlanta Center
09:51AM 33.9664 -84.5722 161° South 428 493 25,900 1,250 Climbing Atlanta Center
09:52AM 33.8517 -84.5267 162° South 433 498 27,200 1,350 Climbing Atlanta Center
09:53AM 33.7183 -84.4733 162° South 447 514 28,600 1,300 Climbing Atlanta Center
09:54AM 33.5975 -84.4403 167° South 452 520 29,800 750 Climbing Atlanta Center
09:55AM 33.4806 -84.4347 178° South 464 534 30,100 700 Climbing Atlanta Center
09:56AM 33.3533 -84.4317 179° South 464 534 31,200 1,200 Climbing Atlanta Center
09:57AM 33.2114 -84.4286 179° South 464 534 32,500 1,050 Climbing Atlanta Center
09:58AM 33.0819 -84.4256 179° South 464 534 33,300 800 Climbing Atlanta Center
09:59AM 32.9525 -84.4250 180° South 464 534 34,100 1,050 Climbing Atlanta Center
10:00AM 32.8189 -84.4244 180° South 470 541 35,400 1,150 Climbing Atlanta Center
10:01AM 32.6917 -84.4164 177° South 470 541 36,400 800 Climbing Atlanta Center
10:02AM 32.5600 -84.4158 180° South 470 541 37,000 300 Climbing Atlanta Center
10:03AM 32.4328 -84.4128 179° South 470 541 37,000  Level Atlanta Center
10:04AM 32.3056 -84.4100 179° South 465 535 37,000  Level Atlanta Center
10:05AM 32.1781 -84.4069 179° South 460 529 37,000  Level Atlanta Center
10:06AM 32.0364 -84.4022 178° South 438 504 37,000  Level Jacksonville Center
10:07AM 31.9092 -84.4003 179° South 443 510 37,000  Level Jacksonville Center
10:08AM 31.7797 -84.3981 179° South 453 521 37,000  Level Jacksonville Center
10:09AM 31.6522 -84.3983 180° South 460 529 37,000  Level Jacksonville Center
10:10AM 31.5253 -84.3817 174° South 460 529 37,000  Level Jacksonville Center
10:11AM 31.4003 -84.3456 166° South 465 535 37,000  Level Jacksonville Center
10:12AM 31.2797 -84.3097 166° South 459 528 37,000  Level Jacksonville Center
10:13AM 31.1569 -84.2739 166° South 459 528 37,000  Level Jacksonville Center
10:14AM 31.0339 -84.2383 166° South 454 522 37,000  Level Jacksonville Center
10:15AM 30.9092 -84.2025 166° South 454 522 37,000  Level Jacksonville Center
10:16AM 30.7842 -84.1669 166° South 454 522 37,000  Level Jacksonville Center
10:17AM 30.6614 -84.1339 167° South 454 522 37,000  Level Jacksonville Center
10:18AM 30.5531 -84.1011 165° South 446 513 37,000  Level Jacksonville Center
10:19AM 30.4281 -84.0658 166° South 446 513 37,000  Level Jacksonville Center
10:20AM 30.3031 -84.0306 166° South 458 527 37,000  Level Jacksonville Center
10:21AM 30.1847 -83.9786 159° South 458 527 37,000  Level Jacksonville Center
10:22AM 30.0661 -83.9197 157° South 458 527 37,000  Level Jacksonville Center
10:23AM 29.9475 -83.8633 158° South 463 533 37,000 -150 Level Jacksonville Center
10:24AM 29.8269 -83.8047 157° South 468 539 36,700 -600 Descending Jacksonville Center
10:25AM 29.7103 -83.7486 157° South 468 539 35,800 -1,109 Descending Jacksonville Center
10:26AM 29.5917 -83.6928 158° South 468 539 34,500 -1,850 Descending Jacksonville Center
10:27AM 29.4711 -83.6319 156° South 468 539 32,100 -2,380 Descending Jacksonville Center
10:28AM 29.3503 -83.5717 156° South 468 539 29,700 -2,400 Descending Jacksonville Center
10:29AM 29.2294 -83.5161 158° South 474 545 27,300 -2,200 Descending Jacksonville Center
10:30AM 29.1233 -83.4489 151° Southeast 460 529 25,300 -2,000 Descending Jacksonville Center
10:31AM 29.0233 -83.3842 150° Southeast 431 496 23,300 -1,916 Descending Jacksonville Center
10:32AM 28.9256 -83.3244 152° Southeast 413 475 21,500 -1,750 Descending Jacksonville Center
10:33AM 28.8361 -83.2647 150° Southeast 391 450 19,800 -1,736 Descending Jacksonville Center
10:34AM 28.7486 -83.2075 150° Southeast 375 432 18,000 -1,700 Descending Jacksonville Center
10:35AM 28.6589 -83.1528 152° Southeast 369 425 16,400 -1,758 Descending Jacksonville Center
10:36AM 28.6000 -83.1167 152° Southeast 354 407 15,100 -1,581 Descending Tampa TRACON
10:37AM 28.4667 -83.0333 151° Southeast 337 388 13,000 -1,366 Descending Tampa TRACON
10:38AM 28.4000 -83.0000 156° South 310 357 11,800 -1,531 Descending Tampa TRACON
10:39AM 28.3500 -82.9550 142° Southeast 313 360 10,500 -1,400 Descending Miami Center
10:40AM 28.2833 -82.8667 131° Southeast 292 336 9,000 -1,328 Descending Tampa TRACON
10:41AM 28.2333 -82.8167 139° Southeast 287 330 7,600 -1,895 Descending Tampa TRACON
10:42AM 28.1667 -82.7500 139° Southeast 278 320 5,400 -1,955 Descending Tampa TRACON
10:43AM 28.1000 -82.7000 147° Southeast 268 308 3,300 -1,409 Descending Tampa TRACON
10:44AM 28.0333 -82.6667 156° South 219 252 2,300 -929 Descending Tampa TRACON
10:46AM 27.9500 -82.7000 199° South 135 155 700 -889 Descending Tampa TRACON